Data for 08/29/2017

Time Sea-Level Adjusted Pressure Absolute Pressure Temperature Relative Humidity Dew Point   
(mb) (inHg) (mb) (inHg) (C) (F) (%) (C) (F)
00:05 1023 30.21 852 25.16 19.1 66.4 24 -2.1 28.3
00:10 1023 30.21 852 25.16 18.9 66 24 -2 28.4
00:15 1023 30.21 852 25.16 18.4 65.1 26 -1.5 29.4
00:20 1023 30.21 852 25.16 17.7 63.9 28 -1.1 30.1
00:25 1023 30.21 852 25.16 17.4 63.3 26 -2.3 27.9
00:30 1023 30.21 852 25.16 17.7 63.9 25 -2.4 27.6
00:35 1023 30.21 852 25.16 18.1 64.5 23 -3.4 25.8
00:40 1023 30.21 852 25.16 18.6 65.5 22 -3.4 25.9
00:45 1023 30.21 852 25.16 18.7 65.7 22 -3.3 26
00:50 1023 30.21 852 25.16 18.6 65.5 23 -2.8 26.9
00:55 1023 30.21 852 25.16 18.3 64.9 24 -2.7 27.2
01:00 1023 30.21 852 25.16 18.2 64.7 25 -2.2 28.1
01:05 1023 30.21 852 25.16 17.7 63.8 26 -1.9 28.6
01:10 1023 30.21 852 25.16 17.5 63.6 24 -3.4 25.9
01:15 1023 30.21 852 25.16 18.2 64.7 24 -2.8 26.9
01:20 1023 30.21 852 25.16 18 64.5 25 -2.4 27.7
01:25 1023 30.21 852 25.16 17.9 64.3 24 -3 26.6
01:30 1023 30.21 852 25.16 18.1 64.5 23 -3.3 26
01:35 1023 30.21 852 25.16 18.3 64.9 22 -3.5 25.7
01:40 1023 30.21 852 25.16 18.5 65.3 23 -2.8 26.9
01:45 1023 30.21 852 25.16 18.2 64.7 23 -3.2 26.3
01:50 1023 30.21 852 25.16 18.3 64.9 22 -3.4 25.8
01:55 1023 30.21 852 25.16 18.1 64.6 24 -2.8 26.9
02:00 1023 30.21 852 25.16 17.7 63.9 24 -2.8 26.9
02:05 1023 30.21 852 25.16 17.5 63.4 25 -2.8 27
02:10 1023 30.21 852 25.16 17.2 62.9 26 -2.4 27.7
02:15 1023 30.21 852 25.16 17.3 63.2 24 -3.3 26.1
02:20 1023 30.21 852 25.16 17.3 63.1 25 -2.6 27.3
02:25 1023 30.21 852 25.16 17.1 62.8 26 -2.6 27.2
02:30 1023 30.21 852 25.16 17.2 62.9 26 -2.2 28.1
02:35 1023 30.21 852 25.16 17.3 63.1 25 -2.7 27.2
02:40 1023 30.21 852 25.16 17.5 63.4 24 -3.1 26.5
02:45 1023 30.21 852 25.16 17.9 64.3 25 -2.4 27.7
02:50 1023 30.21 852 25.16 17.7 63.9 26 -1.9 28.5
02:55 1023 30.21 852 25.16 17.6 63.7 24 -3.2 26.3
03:00 1023 30.21 852 25.16 18 64.4 25 -2.3 27.9
03:05 1023 30.21 852 25.16 17.8 64.1 25 -2.2 28
03:10 1023 30.21 852 25.16 17.6 63.7 25 -2.5 27.5
03:15 1023 30.21 852 25.16 17.8 64 25 -2.5 27.6
03:20 1023 30.21 852 25.16 17.8 64.1 25 -2.5 27.6
03:25 1023 30.21 852 25.16 17.9 64.2 25 -2.3 27.8
03:30 1023 30.21 852 25.16 17.7 63.8 26 -2 28.4
03:35 1023 30.21 852 25.16 17.4 63.3 27 -1.9 28.6
03:40 1023 30.21 852 25.16 17.2 63 27 -2 28.3
03:45 1023 30.21 852 25.16 17.1 62.7 27 -1.9 28.6
03:50 1023 30.21 852 25.16 17 62.5 26 -2.3 27.8
03:55 1023 30.21 852 25.16 17.3 63.1 26 -2.2 28
04:00 1023 30.21 852 25.16 17.4 63.2 26 -2.1 28.3
04:05 1023 30.21 852 25.16 17.3 63.2 27 -1.9 28.5
04:10 1023 30.21 852 25.16 17.3 63.1 27 -2 28.4
04:15 1023 30.21 852 25.16 17.3 63.1 27 -2 28.5
04:20 1023 30.21 852 25.16 17.3 63.1 27 -1.9 28.6
04:25 1023 30.21 852 25.16 17.3 63.1 27 -1.9 28.6
04:30 1023 30.21 852 25.16 17.3 63.1 27 -1.8 28.8
04:35 1023 30.21 852 25.16 17.3 63.1 26 -2.1 28.3
04:40 1023 30.21 852 25.16 17.8 64 25 -2.3 27.9
04:45 1023 30.21 852 25.16 18.2 64.8 23 -3.3 26.1
04:50 1023 30.21 852 25.16 19 66.2 22 -3.2 26.3
04:55 1023 30.21 852 25.16 19 66.2 23 -2.7 27.1
05:00 1023 30.21 852 25.16 18.9 66 22 -3 26.6
05:05 1023 30.21 852 25.16 18.9 65.9 22 -3.1 26.5
05:10 1023 30.21 852 25.16 18.9 65.9 24 -2.2 28.1
05:15 1023 30.21 852 25.16 18.5 65.3 24 -2.2 28
05:20 1023 30.21 852 25.16 18.3 64.9 25 -1.8 28.7
05:25 1023 30.21 852 25.16 18.1 64.5 26 -1.8 28.7
05:30 1023 30.21 852 25.16 17.9 64.2 26 -1.7 28.9
05:35 1023 30.21 852 25.16 17.8 64 25 -2.2 28
05:40 1023 30.21 852 25.16 17.9 64.2 25 -2.5 27.5
05:45 1023 30.21 852 25.16 18.2 64.7 23 -2.9 26.8
05:50 1023 30.21 852 25.16 18.4 65.1 24 -2.5 27.5
05:55 1023 30.21 852 25.16 18.3 64.9 26 -1.4 29.4
06:00 1023 30.21 852 25.16 17.7 63.9 27 -1.4 29.4
06:05 1023 30.21 852 25.16 17.3 63.2 27 -1.8 28.7
06:10 1023 30.21 852 25.16 17.1 62.9 28 -1.5 29.3
06:15 1023 30.21 852 25.16 16.9 62.4 28 -1.7 29
06:20 1023 30.21 852 25.16 16.7 62.1 29 -1.4 29.4
06:25 1023 30.21 852 25.16 16.4 61.5 30 -1.2 29.9
06:30 1023 30.21 852 25.16 16 60.9 33 -0.2 31.6
06:35 1023 30.21 852 25.16 15.5 60 37 1 33.9
06:40 1023 30.21 852 25.16 15 59 34 -0.6 30.9
06:45 1023 30.21 852 25.16 15.4 59.7 35 -0.1 31.9
06:50 1023 30.21 852 25.16 15.5 59.9 29 -2.5 27.5
06:55 1023 30.21 852 25.16 16.5 61.7 29 -1.3 29.7
07:00 1023 30.21 852 25.16 16.3 61.3 30 -1.4 29.4
07:05 1023 30.21 852 25.16 16.5 61.7 28 -2 28.3
07:10 1023 30.21 852 25.16 16.8 62.2 28 -1.5 29.3
07:15 1023 30.21 852 25.16 16.8 62.2 29 -1.4 29.4
07:20 1023 30.21 852 25.16 16.7 62.1 27 -2.1 28.2
07:25 1023 30.21 852 25.16 17.1 62.7 32 0.6 33
07:30 1023 30.21 852 25.16 17.1 62.7 30 -0.4 31.4
07:35 1023 30.21 852 25.16 16.7 62 28 -1.8 28.8
07:40 1023 30.21 852 25.16 17 62.6 28 -1.7 29
07:45 1023 30.21 853 25.19 17.5 63.4 26 -2.2 28
07:50 1023 30.21 853 25.19 17.9 64.2 27 -1.1 30
07:55 1023 30.21 853 25.19 17.7 63.8 27 -1.7 29
08:00 1023 30.21 853 25.19 17.6 63.6 28 -0.8 30.6
08:05 1024 30.24 853 25.19 17.6 63.7 30 -0 31.9
08:10 1024 30.24 853 25.19 17.4 63.3 32 0.8 33.5
08:15 1024 30.24 853 25.19 17.3 63.1 30 -0.3 31.5
08:20 1024 30.24 853 25.19 17.4 63.4 26 -2.2 28
08:25 1024 30.24 853 25.19 17.6 63.7 25 -2.3 27.8
08:30 1024 30.24 853 25.19 17.9 64.2 26 -1.8 28.8
08:35 1024 30.24 853 25.19 18 64.4 28 -0.5 31.1
08:40 1024 30.24 853 25.19 17.7 63.8 26 -1.8 28.8
08:45 1023 30.21 853 25.19 18 64.4 29 0.1 32.1
08:50 1023 30.21 853 25.19 17.5 63.5 33 1.4 34.5
08:55 1024 30.24 853 25.19 17.1 62.8 34 1.2 34.1
09:00 1024 30.24 853 25.19 17.5 63.5 31 0.1 32.3
09:05 1024 30.24 853 25.19 17.9 64.2 32 1.1 34
09:10 1024 30.24 853 25.19 18.7 65.6 32 1.7 35.1
09:15 1024 30.24 853 25.19 19 66.2 35 3.1 37.7
09:20 1024 30.24 853 25.19 18.9 66 36 3.5 38.3
09:25 1024 30.24 853 25.19 19 66.2 31 1.8 35.3
09:30 1024 30.24 853 25.19 19.2 66.6 31 2 35.6
09:35 1024 30.24 853 25.19 19.5 67.1 34 3.2 37.7
09:40 1024 30.24 854 25.22 19.5 67.2 33 3.1 37.6
09:45 1025 30.27 854 25.22 19.3 66.8 35 3.7 38.6
09:50 1025 30.27 854 25.22 18.7 65.7 40 5.1 41.2
09:55 1025 30.27 854 25.22 17.6 63.7 41 4.2 39.5
10:00 1025 30.27 854 25.22 17.3 63.1 40 3.7 38.7
10:05 1025 30.27 854 25.22 17.1 62.7 39 3.2 37.8
10:10 1024 30.24 854 25.22 17 62.7 40 3.3 38
10:15 1024 30.24 853 25.19 16.9 62.4 41 3.7 38.7
10:20 1025 30.27 854 25.22 17.3 63.2 35 1.9 35.5
10:25 1025 30.27 854 25.22 18 64.4 32 1.3 34.4
10:30 1024 30.24 854 25.22 18.4 65.1 33 2 35.6
10:35 1024 30.24 854 25.22 18.5 65.2 32 1.5 34.6
10:40 1024 30.24 854 25.22 18.7 65.6 30 0.9 33.6
10:45 1024 30.24 854 25.22 19.1 66.3 30 1.4 34.6
10:50 1024 30.24 854 25.22 19.4 66.9 28 0.4 32.7
10:55 1024 30.24 854 25.22 19.8 67.6 24 -1.5 29.3
11:00 1024 30.24 854 25.22 19.9 67.8 30 1.9 35.4
11:05 1024 30.24 854 25.22 20.2 68.3 28 1.1 34
11:10 1024 30.24 854 25.22 20.5 68.9 27 0.9 33.5
11:15 1024 30.24 854 25.22 20.8 69.5 25 0.1 32.2
11:20 1024 30.24 854 25.22 21.2 70.2 26 1.1 34
11:25 1024 30.24 854 25.22 21.4 70.5 26 1.3 34.3
11:30 1024 30.24 854 25.22 22.2 71.9 25 1.6 34.9
11:35 1024 30.24 854 25.22 22.4 72.3 28 3.2 37.7
11:40 1024 30.24 854 25.22 22.1 71.9 27 2.6 36.7
11:45 1024 30.24 853 25.19 22.2 72 25 1.7 35
11:50 1024 30.24 853 25.19 22 71.5 25 1 33.8
11:55 1024 30.24 853 25.19 22.1 71.7 26 2 35.5
12:00 1024 30.24 853 25.19 22 71.6 25 1.1 34.1
12:05 1024 30.24 853 25.19 22.3 72.1 25 1.5 34.7
12:10 1024 30.24 853 25.19 22.6 72.7 20 -1.6 29.1
12:15 1024 30.24 853 25.19 23 73.4 18 -2.3 27.8
12:20 1024 30.24 853 25.19 23.6 74.4 23 1.2 34.1
12:25 1024 30.24 853 25.19 24 75.2 19 -0.5 31.1
12:30 1024 30.24 853 25.19 23.7 74.6 20 -0.3 31.5
12:35 1023 30.21 853 25.19 23.9 74.9 20 -0.4 31.2
12:40 1023 30.21 853 25.19 24.3 75.8 18 -1.1 30
12:45 1023 30.21 853 25.19 25.4 77.7 19 0.2 32.4
12:50 1023 30.21 853 25.19 25.9 78.5 17 -0.4 31.3
12:55 1023 30.21 852 25.16 26.1 78.9 18 -0.2 31.6
13:00 1023 30.21 852 25.16 26.1 79 18 -0.1 31.9
13:05 1023 30.21 852 25.16 26.6 79.9 17 -0 31.9
13:10 1023 30.21 852 25.16 27 80.5 17 -0.2 31.7
13:15 1023 30.21 852 25.16 27.1 80.7 17 0.2 32.3
13:20 1023 30.21 852 25.16 28 82.4 15 -0.4 31.3
13:25 1023 30.21 852 25.16 28 82.3 17 1.1 33.9
13:30 1023 30.21 852 25.16 28.1 82.6 16 -0.1 31.8
13:35 1023 30.21 852 25.16 28.5 83.3 14 -0.9 30.3
13:40 1023 30.21 852 25.16 28.6 83.4 14 -0.9 30.4
13:45 1023 30.21 852 25.16 28.3 83 15 -0.8 30.5
13:50 1023 30.21 852 25.16 29.3 84.7 14 -0.9 30.3
13:55 1023 30.21 852 25.16 29.3 84.7 13 -1.4 29.5
14:00 1023 30.21 852 25.16 28.4 83.2 14 -1 30.1
14:05 1023 30.21 852 25.16 28.6 83.5 14 -0.7 30.7
14:10 1023 30.21 852 25.16 28.6 83.5 15 -0.5 31
14:15 1023 30.21 852 25.16 29.2 84.6 13 -1.8 28.7
14:20 1022 30.18 852 25.16 29.4 85 13 -1.9 28.5
14:25 1022 30.18 852 25.16 29.2 84.6 13 -1.6 29.2
14:30 1022 30.18 852 25.16 28.6 83.4 14 -1.5 29.2
14:35 1022 30.18 851 25.13 29.5 85.1 14 -0.9 30.4
14:40 1022 30.18 851 25.13 29.4 84.9 14 -0.9 30.3
14:45 1022 30.18 851 25.13 29.1 84.3 14 -1.2 29.9
14:50 1022 30.18 851 25.13 28.9 84 14 -0.9 30.3
14:55 1022 30.18 851 25.13 29.3 84.8 13 -1.2 29.8
15:00 1022 30.18 851 25.13 29.4 84.9 14 -0.8 30.5
15:05 1022 30.18 851 25.13 30.1 86.1 14 -0.2 31.6
15:10 1022 30.18 851 25.13 30.3 86.6 13 -1.1 29.9
15:15 1022 30.18 851 25.13 30.1 86.1 13 -1.1 30
15:20 1022 30.18 851 25.13 29.6 85.2 13 -1 30.2
15:25 1022 30.18 851 25.13 29 84.2 14 -1 30.2
15:30 1022 30.18 851 25.13 29.4 84.9 13 -1.7 29
15:35 1022 30.18 851 25.13 30.2 86.4 12 -1.7 29
15:40 1022 30.18 851 25.13 30.6 87 11 -2.4 27.7
15:45 1022 30.18 851 25.13 30.4 86.7 12 -2 28.4
15:50 1022 30.18 851 25.13 30.6 87.1 13 -0.5 31.1
15:55 1021 30.15 851 25.13 31.1 88 11 -1.9 28.6
16:00 1021 30.15 851 25.13 31.1 87.9 11 -2.1 28.1
16:05 1021 30.15 851 25.13 31.3 88.3 11 -2.3 27.9
16:10 1021 30.15 850 25.1 31.4 88.5 11 -2.2 28
16:15 1021 30.15 850 25.1 31.3 88.4 11 -2.7 27.1
16:20 1021 30.15 850 25.1 31.1 88 10 -3.2 26.3
16:25 1021 30.15 850 25.1 31.2 88.2 11 -2 28.3
16:30 1021 30.15 850 25.1 31.3 88.3 10 -3.6 25.5
16:35 1021 30.15 850 25.1 31.1 87.9 11 -2.9 26.7
16:40 1021 30.15 850 25.1 30.8 87.5 10 -4.3 24.3
16:45 1021 30.15 850 25.1 30.5 86.9 10 -3.6 25.5
16:50 1021 30.15 850 25.1 30.9 87.6 11 -3 26.7
16:55 1021 30.15 850 25.1 31.2 88.1 11 -2.7 27.1
17:00 1021 30.15 850 25.1 30.9 87.7 11 -2.6 27.4
17:05 1021 30.15 850 25.1 30.9 87.7 11 -2.7 27.1
17:10 1021 30.15 850 25.1 31 87.9 10 -4 24.8
17:15 1021 30.15 850 25.1 30.8 87.4 11 -3 26.7
17:20 1021 30.15 850 25.1 30.6 87.1 10 -3.9 24.9
17:25 1021 30.15 850 25.1 31.5 88.7 10 -4.1 24.6
17:30 1021 30.15 850 25.1 31.4 88.5 11 -1.8 28.8
17:35 1021 30.15 850 25.1 31.2 88.2 10 -3.5 25.7
17:40 1021 30.15 850 25.1 30.7 87.2 10 -4.3 24.3
17:45 1021 30.15 850 25.1 31 87.8 10 -3.7 25.4
17:50 1021 30.15 850 25.1 31.7 89 10 -3.7 25.3
17:55 1021 30.15 850 25.1 31.8 89.2 11 -1.8 28.7
18:00 1021 30.15 850 25.1 31.3 88.4 10 -3 26.6
18:05 1021 30.15 850 25.1 31.3 88.3 10 -3.7 25.4
18:10 1020 30.12 850 25.1 31.3 88.3 10 -4 24.8
18:15 1020 30.12 850 25.1 31.1 87.9 10 -3.3 26.1
18:20 1020 30.12 850 25.1 31 87.7 11 -2.5 27.5
18:25 1020 30.12 850 25.1 30.9 87.5 12 -2 28.4
18:30 1021 30.15 850 25.1 30.5 86.8 13 -1.1 30.1
18:35 1021 30.15 850 25.1 30.2 86.3 12 -2.1 28.3
18:40 1021 30.15 850 25.1 30 85.9 14 -0.3 31.5
18:45 1021 30.15 850 25.1 29.6 85.2 16 1.2 34.1
18:50 1021 30.15 850 25.1 29.1 84.4 17 1.5 34.8
18:55 1020 30.12 850 25.1 28.9 84 13 -1.8 28.8
19:00 1020 30.12 850 25.1 28.9 84 13 -2.3 27.8
19:05 1020 30.12 850 25.1 28.9 84 14 -1.2 29.9
19:10 1020 30.12 850 25.1 28.8 83.8 15 -0.4 31.4
19:15 1020 30.12 850 25.1 28.6 83.4 13 -1.8 28.8
19:20 1020 30.12 849 25.07 28.5 83.3 14 -1.7 29
19:25 1020 30.12 849 25.07 28.4 83.1 15 -0.1 31.9
19:30 1020 30.12 849 25.07 28.3 82.9 17 0.8 33.5
19:35 1020 30.12 849 25.07 28.1 82.7 20 3.7 38.6
19:40 1020 30.12 849 25.07 27.8 82.1 21 3.6 38.5
19:45 1020 30.12 849 25.07 27.4 81.4 31 9 48.1
19:50 1020 30.12 849 25.07 26.5 79.6 29 7.2 45
19:55 1020 30.12 849 25.07 25.8 78.5 29 6.7 44
20:00 1020 30.12 849 25.07 25.3 77.5 30 6.7 44.1
20:05 1020 30.12 849 25.07 24.9 76.7 29 5.6 42.1
20:10 1020 30.12 849 25.07 24.6 76.2 28 5.2 41.3
20:15 1020 30.12 849 25.07 24.4 75.8 27 4.1 39.5
20:20 1020 30.12 850 25.1 24 75.2 31 6.1 43
20:25 1020 30.12 850 25.1 23.3 74 28 3.8 38.8
20:30 1020 30.12 850 25.1 23.2 73.7 30 5 41
20:35 1020 30.12 850 25.1 22.5 72.5 28 3.3 38
20:40 1020 30.12 850 25.1 22.5 72.4 28 3.3 37.9
20:45 1021 30.15 850 25.1 22.1 71.8 32 4.8 40.6
20:50 1021 30.15 850 25.1 21.8 71.2 28 2.6 36.7
20:55 1021 30.15 850 25.1 22.5 72.5 24 1.4 34.5
21:00 1021 30.15 850 25.1 23.1 73.5 24 1.7 35.1
21:05 1021 30.15 850 25.1 22.7 72.8 25 1.9 35.5
21:10 1021 30.15 850 25.1 22.8 73 24 1.4 34.6
21:15 1021 30.15 850 25.1 22.4 72.2 26 2.3 36.1
21:20 1021 30.15 850 25.1 21.5 70.7 27 2.1 35.7
21:25 1021 30.15 850 25.1 21.2 70.1 27 1.6 34.9
21:30 1021 30.15 850 25.1 21.2 70.1 26 0.9 33.6
21:35 1021 30.15 850 25.1 21.7 71 24 0.3 32.6
21:40 1021 30.15 850 25.1 22.3 72.1 23 0.1 32.1
21:45 1021 30.15 850 25.1 22.8 73 21 -0.5 31
21:50 1021 30.15 850 25.1 23.1 73.7 21 -0.4 31.3
21:55 1021 30.15 850 25.1 23.3 73.9 20 -0.7 30.7
22:00 1021 30.15 850 25.1 23.5 74.3 20 -0.8 30.5
22:05 1021 30.15 850 25.1 23.6 74.5 19 -1.3 29.7
22:10 1021 30.15 850 25.1 23.9 75 19 -0.9 30.3
22:15 1021 30.15 850 25.1 23.9 75 18 -1.4 29.5
22:20 1021 30.15 850 25.1 23.9 75 19 -1.2 29.8
22:25 1021 30.15 850 25.1 23.8 74.8 19 -1.1 30
22:30 1021 30.15 850 25.1 23.8 74.8 18 -1.5 29.2
22:35 1021 30.15 850 25.1 24.1 75.4 18 -1.4 29.5
22:40 1021 30.15 850 25.1 23.9 75.1 19 -1.1 30.1
22:45 1021 30.15 850 25.1 23.8 74.8 19 -1.3 29.6
22:50 1021 30.15 850 25.1 23.8 74.9 19 -1.2 29.8
22:55 1021 30.15 850 25.1 23.8 74.8 19 -1.1 29.9
23:00 1021 30.15 850 25.1 23.7 74.6 19 -1 30.1
23:05 1021 30.15 850 25.1 23.6 74.4 19 -1.3 29.6
23:10 1021 30.15 850 25.1 23.6 74.5 19 -0.9 30.3
23:15 1021 30.15 850 25.1 23.7 74.6 19 -1.3 29.6
23:20 1021 30.15 850 25.1 23.8 74.9 19 -1.3 29.7
23:25 1021 30.15 850 25.1 23.8 74.9 18 -1.4 29.5
23:30 1021 30.15 850 25.1 23.8 74.8 19 -1.1 30.1
23:35 1021 30.15 850 25.1 23.6 74.5 19 -1.2 29.9
23:40 1021 30.15 850 25.1 23.6 74.4 19 -1.1 30.1
23:45 1021 30.15 850 25.1 23.5 74.4 19 -1.2 29.9
23:50 1021 30.15 850 25.1 23.5 74.2 20 -0.8 30.5
23:55 1021 30.15 850 25.1 23.4 74.1 19 -1.1 30
24:00 1021 30.15 850 25.1 23.4 74.2 19 -1 30.2